When you browse on this site, cookies collect data to enhance your experience and personalize the content and advertising you see.
Visit our Privacy Policy to learn more. By continuing to use the site, you agree to this use of cookies and data.
  • In Österreich
  • Länderverzeichnis
  • Für 7 Tage
  • Wassertemperatur
  • Wetterkarte
  • News
  • Widgets
  • user-avatar
    Anmelden

    Stündliche Wetter Izmaylovka

    Heute, 21 November, Donnerstag

    Zeit Temperatur Niederschläge Wind Luftdruck Luftfeuchtigkeit
    00:00 -14°C° 0 mm 3 m/S 778 mmHg 62%
    01:00 -14°C° 0 mm 3 m/S 778 mmHg 64%
    02:00 -15°C° 0 mm 3 m/S 778 mmHg 65%
    03:00 -15°C° 0 mm 3 m/S 778 mmHg 67%
    04:00 -16°C° 0 mm 3 m/S 779 mmHg 70%
    05:00 -16°C° 0 mm 3 m/S 779 mmHg 72%
    06:00 -16°C° 0 mm 3 m/S 779 mmHg 74%
    07:00 -16°C° 0 mm 3 m/S 779 mmHg 76%
    08:00 -15°C° 0 mm 3 m/S 779 mmHg 73%
    09:00 -15°C° 0 mm 3 m/S 779 mmHg 70%
    10:00 -14°C° 0 mm 3 m/S 780 mmHg 66%
    11:00 -13°C° 0 mm 3 m/S 779 mmHg 62%
    12:00 -12°C° 0 mm 3 m/S 779 mmHg 59%
    13:00 -12°C° 0 mm 3 m/S 779 mmHg 55%
    14:00 -12°C° 0 mm 3 m/S 779 mmHg 58%
    15:00 -12°C° 0 mm 4 m/S 778 mmHg 60%
    16:00 -12°C° 0 mm 4 m/S 778 mmHg 61%
    17:00 -14°C° 0 mm 4 m/S 778 mmHg 64%
    18:00 -13°C° 0 mm 3 m/S 778 mmHg 67%
    19:00 -14°C° 0 mm 3 m/S 778 mmHg 69%
    20:00 -14°C° 0 mm 3 m/S 778 mmHg 69%
    21:00 -15°C° 0 mm 4 m/S 778 mmHg 69%
    22:00 -15°C° 0 mm 4 m/S 778 mmHg 69%
    23:00 -14°C° 0 mm 3 m/S 777 mmHg 68%

    Morgen, 22 November, Freitag

    Zeit Temperatur Niederschläge Wind Luftdruck Luftfeuchtigkeit
    00:00 -14°C° 0 mm 3 m/S 777 mmHg 68%
    01:00 -14°C° 0 mm 3 m/S 777 mmHg 68%
    02:00 -14°C° 0 mm 3 m/S 776 mmHg 66%
    03:00 -14°C° 0 mm 3 m/S 776 mmHg 64%
    04:00 -14°C° 0 mm 3 m/S 776 mmHg 63%
    05:00 -14°C° 0 mm 3 m/S 776 mmHg 62%
    06:00 -14°C° 0 mm 3 m/S 775 mmHg 62%
    07:00 -14°C° 0 mm 3 m/S 775 mmHg 62%
    08:00 -13°C° 0 mm 3 m/S 775 mmHg 59%
    09:00 -12°C° 0 mm 3 m/S 775 mmHg 57%
    10:00 -12°C° 0 mm 3 m/S 775 mmHg 54%
    11:00 -9°C° 0 mm 3 m/S 775 mmHg 51%
    12:00 -8°C° 0 mm 3 m/S 774 mmHg 48%
    13:00 -7°C° 0 mm 3 m/S 774 mmHg 45%
    14:00 -7°C° 0 mm 3 m/S 774 mmHg 48%
    15:00 -8°C° 0 mm 3 m/S 773 mmHg 50%
    16:00 -8°C° 0 mm 3 m/S 773 mmHg 53%
    17:00 -8°C° 0 mm 3 m/S 773 mmHg 56%
    18:00 -9°C° 0 mm 3 m/S 773 mmHg 59%
    19:00 -9°C° 0 mm 3 m/S 772 mmHg 62%
    20:00 -9°C° 0 mm 2 m/S 772 mmHg 66%
    21:00 -9°C° 0 mm 2 m/S 772 mmHg 69%
    22:00 -9°C° 0 mm 2 m/S 772 mmHg 72%
    23:00 -9°C° 0 mm 2 m/S 772 mmHg 75%

    übermorgen, 23 November, Samstag

    Zeit Temperatur Niederschläge Wind Luftdruck Luftfeuchtigkeit
    00:00 -9°C° 0 mm 2 m/S 772 mmHg 78%
    01:00 -9°C° 0 mm 2 m/S 772 mmHg 82%
    02:00 -9°C° 0 mm 2 m/S 772 mmHg 84%
    03:00 -9°C° 0 mm 2 m/S 772 mmHg 86%
    04:00 -10°C° 0 mm 2 m/S 772 mmHg 88%
    05:00 -10°C° 0 mm 2 m/S 771 mmHg 90%
    06:00 -10°C° 0 mm 2 m/S 771 mmHg 92%
    07:00 -10°C° 0 mm 2 m/S 771 mmHg 93%
    08:00 -10°C° 0 mm 3 m/S 771 mmHg 90%
    09:00 -9°C° 0 mm 3 m/S 771 mmHg 86%
    10:00 -8°C° 0 mm 3 m/S 771 mmHg 83%
    11:00 -7°C° 0 mm 3 m/S 770 mmHg 80%
    12:00 -6°C° 0 mm 3 m/S 770 mmHg 76%
    13:00 -4°C° 0 mm 2 m/S 770 mmHg 73%
    14:00 -5°C° 0 mm 2 m/S 770 mmHg 77%
    15:00 -5°C° 0 mm 2 m/S 769 mmHg 81%
    16:00 -5°C° 0 mm 2 m/S 769 mmHg 85%
    17:00 -6°C° 0 mm 2 m/S 769 mmHg 83%
    18:00 -8°C° 0 mm 3 m/S 769 mmHg 80%
    19:00 -8°C° 0 mm 3 m/S 769 mmHg 78%
    20:00 -9°C° 0 mm 3 m/S 769 mmHg 73%
    21:00 -9°C° 0 mm 3 m/S 769 mmHg 68%
    22:00 -9°C° 0 mm 3 m/S 768 mmHg 64%
    23:00 -10°C° 0 mm 3 m/S 768 mmHg 65%

    24 November, Sonntag

    Zeit Temperatur Niederschläge Wind Luftdruck Luftfeuchtigkeit
    00:00 -10°C° 0 mm 3 m/S 768 mmHg 66%
    01:00 -10°C° 0 mm 3 m/S 768 mmHg 67%
    02:00 -10°C° 0 mm 3 m/S 768 mmHg 70%
    03:00 -10°C° 0 mm 3 m/S 768 mmHg 72%
    04:00 -10°C° 0 mm 3 m/S 768 mmHg 75%
    05:00 -12°C° 0 mm 3 m/S 768 mmHg 79%
    06:00 -12°C° 0 mm 3 m/S 768 mmHg 83%
    07:00 -12°C° 0 mm 3 m/S 768 mmHg 87%
    08:00 -10°C° 0 mm 3 m/S 768 mmHg 85%
    09:00 -9°C° 0 mm 3 m/S 768 mmHg 83%
    10:00 -9°C° 0 mm 3 m/S 768 mmHg 81%
    11:00 -8°C° 0 mm 3 m/S 768 mmHg 78%
    12:00 -7°C° 0 mm 3 m/S 768 mmHg 75%
    13:00 -6°C° 0 mm 3 m/S 768 mmHg 72%
    14:00 -6°C° 0 mm 3 m/S 768 mmHg 75%
    15:00 -5°C° 0 mm 2 m/S 768 mmHg 77%
    16:00 -5°C° 0 mm 2 m/S 768 mmHg 80%
    17:00 -6°C° 0 mm 2 m/S 768 mmHg 83%
    18:00 -6°C° 0 mm 2 m/S 768 mmHg 87%
    19:00 -7°C° 0 mm 2 m/S 768 mmHg 90%
    20:00 -7°C° 0 mm 2 m/S 768 mmHg 91%
    21:00 -7°C° 0 mm 2 m/S 768 mmHg 92%
    22:00 -8°C° 0 mm 2 m/S 767 mmHg 93%
    23:00 -8°C° 0 mm 2 m/S 767 mmHg 93%

    25 November, Montag

    Zeit Temperatur Niederschläge Wind Luftdruck Luftfeuchtigkeit
    00:00 -8°C° 0 mm 2 m/S 767 mmHg 94%
    01:00 -8°C° 0 mm 2 m/S 767 mmHg 94%
    02:00 -8°C° 0 mm 2 m/S 767 mmHg 94%
    03:00 -8°C° 0 mm 2 m/S 767 mmHg 94%
    04:00 -9°C° 0 mm 2 m/S 767 mmHg 94%
    05:00 -9°C° 0 mm 2 m/S 767 mmHg 94%
    06:00 -9°C° 0 mm 2 m/S 767 mmHg 94%
    07:00 -9°C° 0 mm 2 m/S 767 mmHg 94%
    08:00 -8°C° 0 mm 2 m/S 767 mmHg 92%
    09:00 -7°C° 0 mm 1 m/S 767 mmHg 89%
    10:00 -6°C° 0 mm 1 m/S 767 mmHg 87%
    11:00 -4°C° 0 mm 1 m/S 767 mmHg 83%
    12:00 -4°C° 0 mm 1 m/S 767 mmHg 79%
    13:00 -3°C° 0 mm 1 m/S 767 mmHg 75%
    14:00 -3°C° 0 mm 1 m/S 767 mmHg 78%
    15:00 -4°C° 0 mm 1 m/S 767 mmHg 81%
    16:00 -4°C° 0 mm 1 m/S 767 mmHg 84%
    17:00 -6°C° 0 mm 1 m/S 767 mmHg 86%
    18:00 -6°C° 0 mm 1 m/S 767 mmHg 89%
    19:00 -6°C° 0 mm 1 m/S 767 mmHg 91%
    20:00 -7°C° 0 mm 1 m/S 767 mmHg 91%
    21:00 -7°C° 0 mm 1 m/S 767 mmHg 92%
    22:00 -7°C° 0 mm 1 m/S 767 mmHg 92%
    23:00 -7°C° 0 mm 0 m/S 767 mmHg 92%

    26 November, Dienstag

    Zeit Temperatur Niederschläge Wind Luftdruck Luftfeuchtigkeit
    00:00 -8°C° 0 mm 0 m/S 767 mmHg 92%
    01:00 -8°C° 0 mm 0 m/S 767 mmHg 92%
    02:00 -8°C° 0 mm 0 m/S 767 mmHg 93%
    03:00 -8°C° 0 mm 0 m/S 767 mmHg 93%
    04:00 -8°C° 0 mm 0 m/S 767 mmHg 93%
    05:00 -8°C° 0 mm 0 m/S 767 mmHg 94%
    06:00 -8°C° 0 mm 0 m/S 767 mmHg 94%
    07:00 -8°C° 0 mm 0 m/S 767 mmHg 94%
    08:00 -8°C° 0 mm 0 m/S 767 mmHg 93%
    09:00 -7°C° 0 mm 1 m/S 767 mmHg 92%
    10:00 -7°C° 0 mm 1 m/S 767 mmHg 90%
    11:00 -6°C° 0 mm 1 m/S 767 mmHg 85%
    12:00 -6°C° 0 mm 2 m/S 767 mmHg 80%
    13:00 -5°C° 0 mm 2 m/S 767 mmHg 76%
    14:00 -6°C° 0 mm 2 m/S 767 mmHg 78%
    15:00 -6°C° 0 mm 2 m/S 767 mmHg 81%
    16:00 -7°C° 0 mm 2 m/S 767 mmHg 84%
    17:00 -7°C° 0 mm 2 m/S 767 mmHg 86%
    18:00 -8°C° 0 mm 2 m/S 767 mmHg 87%
    19:00 -8°C° 0 mm 2 m/S 767 mmHg 89%
    20:00 -8°C° 0 mm 2 m/S 767 mmHg 88%
    21:00 -9°C° 0 mm 2 m/S 767 mmHg 87%
    22:00 -8°C° 0 mm 1 m/S 767 mmHg 86%
    23:00 -9°C° 0 mm 2 m/S 767 mmHg 87%
    Mehr zeigen